Regional Weather Roundup
Issued by NWS

Home | Current Version | Previous Version | Text Only | Print | Product List | Glossary Off
Versions: 1 2 3 4 5 6 7 8 9 10 11 12 13 14 15 16 17 18 19 20 21 22 23 24 25 26 27 28

000
ASUS45 KTFX 291010
RWRMT
MONTANA REGIONAL WEATHER ROUNDUP
NATIONAL WEATHER SERVICE GREAT FALLS MT
400 AM MDT MON AUG 29 2016

NOTE: "FAIR" INDICATES FEW OR NO CLOUDS BELOW 12000 FEET WITH NO
SIGNIFICANT WEATHER AND/OR OBSTRUCTIONS TO VISIBILITY.

MTZ001>007-043-291100-
WEST OF THE DIVIDE

CITY           SKY/WX    TMP DP  RH WIND       PRES   REMARKS
KALISPELL        N/A     47  41  80 N8        30.18R
MISSOULA         N/A     51  37  58 CALM      30.21R
BUTTE          CLEAR     43  31  62 SE5       30.34S
MULLAN PASS      N/A     56  33  42 S3        30.29S
DEER LODGE       N/A     46  36  66 CALM      30.32S
EUREKA           N/A     52  39  62 CALM      30.18R
HAMILTON         N/A     54  39  58 CALM      30.22S
LIBBY            N/A     48  37  66 SE3       30.19R
RONAN            N/A     46  39  76 CALM      30.20R
$$

MTZ008-052>055-291100-
SOUTHWEST MONTANA

CITY           SKY/WX    TMP DP  RH WIND       PRES   REMARKS
BOZEMAN        CLOUDY    52  41  66 CALM      30.29R
DILLON         CLEAR     53  33  46 S8        30.30R
W YELLOWSTONE  CLOUDY    37  28  70 CALM      30.41R
ENNIS          CLEAR     50  32  50 CALM      30.36R
THREE FORKS      N/A     46  17  31 CALM      30.24R
TWIN BRIDGES     N/A     50  29  44 NE2       30.25R
$$

MTZ009-010-012-014-046-048-049-054-291100-
EAST SLOPES AND CENTRAL MONTANA

CITY           SKY/WX    TMP DP  RH WIND       PRES   REMARKS
CUT BANK         N/A     48  41  76 SE8       30.24S
GREAT FALLS    CLEAR     47  42  83 W5        30.23F
MALMSTROM AFB  CLEAR     49  44  82 MISG      30.23S
HELENA         CLEAR     55  41  59 CALM      30.25S
CHOTEAU          N/A     48  43  81 NE5       30.25F
$$

MTZ011-013-016-021-045-047-050-051-291100-
NORTH CENTRAL MONTANA

CITY           SKY/WX    TMP DP  RH WIND       PRES   REMARKS
HAVRE          CLOUDY    56  45  66 E12       30.23S
LEWISTOWN      CLEAR     55  46  71 SE8       30.28S
N BAR RANCH      N/A     48  41  76 CALM      30.33S
CHINOOK          N/A     52  46  82 E5        30.25R
$$

MTZ017>020-022>027-061-062-291100-
NORTHEAST MONTANA

CITY           SKY/WX    TMP DP  RH WIND       PRES   REMARKS
GLASGOW        CLOUDY    55  44  66 S6        30.25R
JORDAN           N/A     59  48  67 NE7       30.25R
SIDNEY         CLEAR     55  47  74 N6        30.25R
WOLF POINT     PTCLDY    56  46  69 E7        30.27R
POPLAR           N/A     52  45  76 SE3       30.27R
SCOBEY           N/A     43  38  82 CALM      30.23
$$

MTZ028>42-056>058-291100-
SOUTHCENTRAL AND SOUTHEAST MONTANA

CITY           SKY/WX    TMP DP  RH WIND       PRES   REMARKS
BAKER          CLOUDY    65  48  54 E12       30.21R
BILLINGS       CLEAR     61  45  55 NW12      30.25R
LIVINGSTON     CLEAR     51  41  68 NW6       30.31R
MILES CITY     CLOUDY    69  47  45 NE14      30.20R
EKALAKA          N/A     65  47  52 NE14      30.17S
FORSYTH          N/A     64  48  55 N3        30.20S
LAUREL           N/A     62  42  47 NW7       30.22R
ROUNDUP          N/A     59  45  59 N5        30.16S
$$

REGIONAL REPORTS...DAKOTAS

CITY           SKY/WX    TMP DP  RH WIND       PRES   REMARKS
WILLISTON      PTCLDY    55  45  68 N13       30.24R
MINOT          CLEAR     57  50  77 NW10      30.18R
DICKINSON      CLOUDY    63  50  62 N10       30.18R
CROSBY           N/A     46  46 100 NW6       30.26R
WATFORD CITY     N/A     55  46  71 N6        30.24R
BISMARCK       CLOUDY    67  52  58 N7        30.13R
GRAND FORKS    CLOUDY    65  62  90 W7        30.03R
FARGO          CLEAR     73  70  90 SE8       30.01R
BUFFALO SD       N/A     66  52  60 NE16      30.12R
RAPID CITY     CLEAR     65  46  50 N17       30.12R
$$

REGIONAL REPORTS...WYOMING/IDAHO/WASHINGTON

CITY           SKY/WX    TMP DP  RH WIND       PRES   REMARKS
GILLETTE       CLEAR     52  41  66 N3        30.21R
SHERIDAN       PTCLDY    59  46  62 S5        30.23R
BUFFALO WY     PTCLDY    66  34  30 NW8       30.28R
CODY           CLEAR     57  41  54 SW5       30.31R
YELLOWSTONE LA   N/A     37  33  85 NW3       30.50R
IDAHO FALLS    CLEAR     50  39  66 CALM      30.25R
SALMON         CLEAR     50  39  66 CALM      30.24S
BOISE            N/A     70  40  33 SE9       30.06S
SPOKANE        PTCLDY    59  38  45 CALM      30.11R
$$

REGIONAL REPORTS...ALBERTA

CITY           SKY/WX    TMP DP  RH WIND       PRES   REMARKS
EDMONTON       PTCLDY    37  36  93 E2        30.21S
CALGARY        CLEAR     46  43  87 S9        30.20S
LETHBRIDGE     CLEAR     41  41 100 S12G28    30.22S
MEDICINE HAT   CLEAR     48  43  81 E6        30.23S
WATERTON GATE    N/A     36  34  93 CALM        N/A
MILK RIVER       N/A     43  41  93 SW3         N/A
ONEFOUR          N/A     46  41  81 E10         N/A
$$

REGIONAL REPORTS...SASKATCHEWAN

CITY           SKY/WX    TMP DP  RH WIND       PRES   REMARKS
SWIFT CURRENT  CLEAR     43  43 100 SE3       30.27S
REGINA         PTCLDY    39  39 100 W8        30.25R
SASKATOON      CLEAR     37  37 100 SW8       30.26R WCI  31
CYPRESS HILLS    N/A     45  39  81 NE5         N/A
VAL MARIE        N/A     41  37  87 NE6         N/A
ROCKGLEN         N/A     45  43  93 N10         N/A
$$




USA.gov is the U.S. government's official web portal to all federal, state and local government web resources and services.